STARLINK-1284 (45390 NORAD) Tracking and Keplerian Element Data

This shows tracking and keplerian element data for the satellite.

Feedback or suggestion? Click here.




ElementValue
Catalog45390
NameSTARLINK-1284
Epoch Orbit176
Epoch Day189.91668981
Epoch Year2020
RAAN82.6748
Inclination53.0007
Eccentricity0.0001712
Argument of Perigee80.3869
Mean Anonmoly295.3552
Mean Motion15.05602363
Decay Rate-0.00028865
L11 45390U 20019AG 20189.91668981 -.00028865 00000-0 -19687-2 0 9995
L22 45390 53.0007 82.6748 0001712 80.3869 295.3552 15.05602363 1764

Live tracking and technical data element details for STARLINK-1284 (NORAD 45390). STARLINK-1284 can be tracked NOW for your location showing map with azimuth and elevation plus other details from your city location.

Track the satellite on the map from your city or location and see movement details for azimuth, elevation, latitude, longitude, range, height, and movement on the map or in text.







IsCatalogInMostPopularTable: catalog: 45390, numindb: 25
Update: records affected: 1



GetName: 45390 STARLINK-1284

Hit Count: updated at: Fri, 10 Jul 2020 02:02:13 GMT